Location: Cucq
(50.4773°N, 1.6202°E)
Time: 05:35:37
(UTC+00:00)

Cosmos 1461 - Pass Details

Date: 07 August 2020
Orbit: 501 x 665 km, 65.0° (Epoch: 19 September)

Event Time Altitude Azimuth Distance (km) Brightness Sun altitude
Exits shadow 03:23:38 13° 227° (SW) 1,732 4.7 -9.6°
Maximum altitude 03:27:30 75° 312° (NW) 641 3.1 -9.2°
Drops below altitude 10° 03:32:06 10° 38° (NE) 2,029 7.2 -8.6°
Sets 03:34:27 0° 40° (NE) 2,963 8.6 -8.3°
